Vicksburg, LA

2:37 PM CDT on May 26, 2017 (GMT -0500)
Vicksburg Tallulah Regional

Weather History for KTVR - January, 2013

Change the Weather History Date:

Thursday, January 17, 2013

  Actual Average Record
Temperature  
Mean Temperature 43 °F 45 °F  
Max Temperature 53 °F 55 °F 74 °F (1950)
Min Temperature 32 °F 35 °F 12 °F (1977)
Degree Days  
Heating Degree Days 22 20  
Month to date heating degree days 294 339  
Since 1 July heating degree days 1231 1276  
Cooling Degree Days 0 0  
Month to date cooling degree days 9 0  
Year to date cooling degree days 9 0  
Moisture  
Dew Point 33 °F    
Average Humidity 75    
Maximum Humidity 100    
Minimum Humidity 50    
Precipitation  
Precipitation 0.08 in 0.15 in 2.10 in (1994)
Month to date precipitation 12.29 2.64  
Year to date precipitation 12.29 2.64  
Sea Level Pressure  
Sea Level Pressure 30.30 in    
Wind  
Wind Speed 7 mph (NW)    
Max Wind Speed 20 mph    
Max Gust Speed 25 mph    
Visibility 8 miles    
Events Snow    
T = Trace of Precipitation, MM = Missing Value Source: NWS Daily Summary

Daily Weather History Graph

Daily Weather History Graph

Search for Another Location

Airport or City:

Trip Planner

Search our weather history database for the weather conditions in past years. The results will help you decide how hot, cold, wet, or windy it might be!

Date:

Astronomy

Jan. 17, 2013 Rise Set
Actual Time 7:05 AM CST 5:23 PM CST
Civil Twilight 6:38 AM CST 5:50 PM CST
Nautical Twilight 6:08 AM CST 6:20 PM CST
Astronomical Twilight 5:39 AM CST 6:49 PM CST
Moon 10:37 AM CST (1/17) 11:48 PM CST (1/17)
Length of Visible Light 11h 11m
Length of Day
10h 18m
Waxing Crescent, 38% of the Moon is Illuminated
Jan 17
Waxing Crescent
Jan 18
First Quarter
Jan 26
Full
Feb 3
Last Quarter
Feb 10
New

Hourly Weather History & Observations

Time (CST) Temp. Windchill Dew Point Humidity Pressure Visibility Wind Dir Wind Speed Gust Speed Precip Events Conditions
12:15 AM 33.8 °F 26.4 °F 32.0 °F 93% 30.18 in 1.8 mi NNW 9.2 mph - 0.02 in Snow Light Snow
12:26 AM 33.8 °F 26.4 °F 32.0 °F 93% 30.17 in 2.5 mi NNW 9.2 mph - 0.03 in Snow Light Snow
12:33 AM 33.8 °F 25.8 °F 32.0 °F 93% 30.18 in 4.0 mi NNW 10.4 mph 17.3 mph 0.03 in Snow Light Snow
12:49 AM 33.8 °F 26.4 °F 32.0 °F 93% 30.18 in 8.0 mi North 9.2 mph - 0.03 in Snow Light Snow
12:53 AM 34.0 °F 25.5 °F 32.0 °F 92% 30.21 in 9.0 mi North 11.5 mph - 0.03 in Snow Light Snow
1:53 AM 36.0 °F 28.5 °F 32.0 °F 86% 30.22 in 10.0 mi NW 10.4 mph - 0.00 in   Overcast
2:53 AM 35.1 °F 25.2 °F 32.0 °F 89% 30.23 in 7.0 mi NW 16.1 mph 23.0 mph 0.00 in Snow Light Snow
3:19 AM 33.8 °F 23.5 °F 32.0 °F 93% 30.21 in 2.5 mi NW 16.1 mph 23.0 mph 0.01 in Snow Light Snow
3:44 AM 33.8 °F 24.3 °F 32.0 °F 93% 30.21 in 2.5 mi WNW 13.8 mph - 0.04 in Snow Light Snow
3:53 AM 34.0 °F 25.5 °F 32.0 °F 92% 30.23 in 2.5 mi WNW 11.5 mph - 0.05 in Snow Light Snow
4:02 AM 33.8 °F 26.4 °F 32.0 °F 93% 30.21 in 4.0 mi WNW 9.2 mph - 0.01 in Snow Light Snow
4:12 AM 33.8 °F 26.4 °F 33.8 °F 100% 30.20 in 4.0 mi WNW 9.2 mph - 0.01 in Snow Light Snow
4:22 AM 33.8 °F 27.7 °F 33.8 °F 100% 30.21 in 9.0 mi West 6.9 mph - 0.01 in Snow Light Snow
5:53 AM 34.0 °F 28.8 °F 33.1 °F 96% 30.25 in 10.0 mi SSE 5.8 mph - N/A   Overcast
6:53 AM 33.1 °F - 32.0 °F 96% 30.27 in 10.0 mi Calm Calm - N/A   Scattered Clouds
7:53 AM 33.1 °F - 30.9 °F 92% 30.29 in 7.0 mi Calm Calm - N/A   Clear
8:53 AM 37.9 °F 34.4 °F 35.1 °F 89% 30.32 in 10.0 mi West 4.6 mph - N/A   Clear
9:53 AM 41.0 °F 34.3 °F 30.9 °F 67% 30.34 in 10.0 mi NW 11.5 mph - N/A   Clear
10:53 AM 44.1 °F 39.0 °F 30.0 °F 58% 30.33 in 10.0 mi NW 9.2 mph - N/A   Partly Cloudy
11:53 AM 46.0 °F 41.0 °F 30.0 °F 54% 30.34 in 10.0 mi NW 10.4 mph 17.3 mph N/A   Overcast
12:53 PM 48.0 °F - 32.0 °F 54% 30.32 in 10.0 mi WNW 10.4 mph - N/A   Unknown
1:53 PM 50.0 °F - 33.1 °F 52% 30.32 in 10.0 mi NW 13.8 mph 20.7 mph N/A   Clear
2:53 PM 52.0 °F - 34.0 °F 50% 30.34 in 10.0 mi NNW 10.4 mph - N/A   Clear
3:53 PM 53.1 °F - 35.1 °F 50% 30.36 in 10.0 mi NNW 10.4 mph 16.1 mph N/A   Clear
4:53 PM 52.0 °F - 35.1 °F 53% 30.39 in 10.0 mi NNW 6.9 mph - N/A   Clear
5:53 PM 48.9 °F - 36.0 °F 61% 30.41 in 10.0 mi North 6.9 mph - N/A   Clear
6:53 PM 44.1 °F 42.5 °F 37.9 °F 79% 30.43 in 10.0 mi North 3.5 mph - N/A   Clear
7:53 PM 45.0 °F 41.8 °F 37.0 °F 74% 30.45 in 10.0 mi North 5.8 mph - N/A   Clear
8:53 PM 46.0 °F 43.9 °F 36.0 °F 68% 30.47 in 10.0 mi North 4.6 mph - N/A   Clear
9:53 PM 42.1 °F - 37.9 °F 85% 30.48 in 10.0 mi Calm Calm - N/A   Clear
10:53 PM 42.1 °F 40.2 °F 36.0 °F 79% 30.50 in 10.0 mi NNE 3.5 mph - N/A   Clear
11:53 PM 42.1 °F 40.2 °F 36.0 °F 79% 30.51 in 10.0 mi North 3.5 mph - N/A   Clear